{"data":{"norad_id":69632,"intl_designator":"2026-128G","name":"ZHUQUE-2E DEB","alt_names":[],"object_type":"DEBRIS","status":"UNKNOWN","operator":null,"country":"PRC","launch_date":"2026-06-09","launch_site_code":"JSC","launch_vehicle":null,"mission":null,"orbit_class":"UNKNOWN","rcs_meters":null,"size_class":null,"mass_kg":null,"dimensions":null,"purposes":[],"wikipedia_slug":null,"has_3d_model":false,"image_url":null,"decayed_at":null,"tle_current":{"epoch":"2026-06-25T14:50:48.633216Z","epoch_age_seconds":7536623,"freshness":"OLD","line1":"1 69632U 26128G   26176.61861844  .11202207  12348-4  16521-2 0  9999","line2":"2 69632  54.5177 261.2158 0024438  21.8647 338.3453 16.32690987  2553","mean_motion":16.32690987,"eccentricity":0.0024438,"inclination_deg":54.5177,"raan_deg":261.2158,"arg_perigee_deg":21.8647,"mean_anomaly_deg":338.3453,"bstar":0.0016521,"rev_number":255,"period_min":88.197951202385,"perigee_km":169.27821533528,"apogee_km":201.35775792794,"semimajor_km":6563.4549866316,"source":"CELESTRAK","updated_at":"2026-06-26T09:00:23.010974Z"}}}